This demonstration page uses our WeatherBlox Daily Observations layout. Learn more.

Left ArrowRight Arrow

39.29038, -76.61219

Hourly Observations for July 19, 2021

Temp ( °F °C ) Dew Point ( °F °C ) Humidity (%) Winds ( mph kmh ) Pressure ( in mb ) Visibility ( mi km ) Precip ( " mm )
12:54 am 00:54 Cloudy 72 22.2 63 17.2 73 73 N N/A 30.05 1018 10 16 N/A
1:54 am 01:54 Cloudy 72 22.2 63 17.2 73 73 WSW 3 6 30.04 1017 10 16 N/A
2:54 am 02:54 Mostly Cloudy 71 21.7 64 17.8 79 79 N N/A 30.03 1017 10 16 N/A
3:54 am 03:54 Cloudy 69 20.6 63 17.2 81 81 W 7 11 30.02 1017 10 16 N/A
4:54 am 04:54 Mostly Cloudy 68 20 62 16.7 81 81 W 3 6 30.02 1017 10 16 N/A
5:54 am 05:54 Mostly Cloudy 69 20.6 62 16.7 78 78 N N/A 30.03 1017 10 16 N/A
6:54 am 06:54 Mostly Cloudy 69 20.6 62 16.7 78 78 W 3 6 30.04 1017 10 16 N/A
7:54 am 07:54 Mostly Cloudy 72 22.2 63 17.2 73 73 W 5 7 30.05 1018 10 16 N/A
8:54 am 08:54 Mostly Cloudy 76 24.4 64 17.8 67 67 WSW 5 7 30.06 1018 10 16 N/A
9:54 am 09:54 Mostly Cloudy 81 27.2 63 17.2 54 54 W 7 11 30.05 1018 10 16 N/A
10:54 am 10:54 Mostly Cloudy 82 27.8 62 16.7 51 51 VRB 5 7 30.05 1018 10 16 N/A
11:54 am 11:54 Mostly Cloudy 84 28.9 63 17.2 49 49 VRB 7 11 30.04 1017 10 16 N/A
12:54 pm 12:54 Mostly Cloudy 86 30 62 16.7 45 45 VRB 5 7 30.03 1017 10 16 N/A
1:54 pm 13:54 Mostly Cloudy 88 31.1 63 17.2 43 43 NW 6 9 30.01 1016 10 16 N/A
2:54 pm 14:54 Mostly Cloudy 89 31.7 64 17.8 43 43 W 9 15 30.00 1016 9 14 N/A
3:54 pm 15:54 Mostly Cloudy 89 31.7 63 17.2 42 42 VRB 5 7 29.98 1015 9 14 N/A
4:54 pm 16:54 Mostly Cloudy 89 31.7 64 17.8 43 43 W 7 11 29.97 1015 8 13 N/A
5:54 pm 17:54 Mostly Cloudy 89 31.7 63 17.2 42 42 WNW 7 11 29.97 1015 8 13 N/A
6:54 pm 18:54 Mostly Cloudy 87 30.6 65 18.3 48 48 WNW 9 15 29.96 1015 9 14 N/A
7:54 pm 19:54 Partly Cloudy 85 29.4 65 18.3 51 51 VRB 5 7 29.97 1015 9 14 N/A
8:54 pm 20:54 Mostly Clear 81 27.2 65 18.3 58 58 W 3 6 29.98 1015 10 16 N/A
9:54 pm 21:54 Mostly Clear 79 26.1 65 18.3 62 62 N N/A 29.99 1016 9 14 N/A
10:54 pm 22:54 Mostly Clear 79 26.1 66 18.9 65 65 SSW 5 7 29.99 1016 9 14 N/A
11:54 pm 23:54 Mostly Clear 76 24.4 66 18.9 72 72 SW 5 7 29.99 1016 8 13 N/A

Powered by AerisWeather